• In Belarus
  • List of Countries
  • For 7 days
  • Water Temperature
  • Satellite Maps
  • Weather Map
  • Weather Widgets
  • user-avatar
    Login

    Hourly Weather Chhata

    Today, 25 September, Tuesday

    Time Temperature Precipitation Wind Pressure Humidity
    00:00 +26°C° 0 mm 3 mps 739 mmHg 85%
    01:00 +25°C° 0 mm 3 mps 738 mmHg 86%
    02:00 +25°C° 0 mm 3 mps 738 mmHg 87%
    03:00 +25°C° 0 mm 3 mps 738 mmHg 87%
    04:00 +25°C° 0 mm 3 mps 738 mmHg 88%
    05:00 +24°C° 0 mm 2 mps 738 mmHg 88%
    06:00 +25°C° 0 mm 3 mps 739 mmHg 85%
    07:00 +26°C° 0 mm 3 mps 739 mmHg 82%
    08:00 +27°C° 0 mm 3 mps 739 mmHg 78%
    09:00 +29°C° 0 mm 4 mps 739 mmHg 71%
    10:00 +32°C° 0 mm 4 mps 739 mmHg 63%
    11:00 +34°C° 0 mm 5 mps 740 mmHg 54%
    12:00 +34°C° 0 mm 5 mps 740 mmHg 52%
    13:00 +35°C° 0 mm 5 mps 739 mmHg 50%
    14:00 +35°C° 0 mm 6 mps 738 mmHg 49%
    15:00 +34°C° 0 mm 5 mps 738 mmHg 52%
    16:00 +34°C° 0 mm 4 mps 738 mmHg 56%
    17:00 +31°C° 0 mm 3 mps 738 mmHg 65%
    18:00 +30°C° 0 mm 2 mps 738 mmHg 69%
    19:00 +29°C° 0 mm 2 mps 738 mmHg 74%
    20:00 +28°C° 0 mm 2 mps 738 mmHg 78%
    21:00 +28°C° 0 mm 2 mps 738 mmHg 78%
    22:00 +28°C° 0 mm 2 mps 738 mmHg 79%
    23:00 +28°C° 0 mm 2 mps 739 mmHg 80%

    Tomorrow, 26 September, Wednesday

    Time Temperature Precipitation Wind Pressure Humidity
    00:00 +27°C° 0 mm 1 mps 738 mmHg 80%
    01:00 +27°C° 0 mm 1 mps 738 mmHg 80%
    02:00 +27°C° 0 mm 1 mps 738 mmHg 80%
    03:00 +27°C° 0 mm 1 mps 738 mmHg 80%
    04:00 +27°C° 0 mm 1 mps 738 mmHg 80%
    05:00 +27°C° 0 mm 1 mps 738 mmHg 81%
    06:00 +28°C° 0 mm 2 mps 738 mmHg 77%
    07:00 +28°C° 0 mm 2 mps 739 mmHg 74%
    08:00 +29°C° 0 mm 2 mps 739 mmHg 70%
    09:00 +31°C° 0 mm 3 mps 739 mmHg 63%
    10:00 +34°C° 0 mm 3 mps 739 mmHg 55%
    11:00 +35°C° 0 mm 3 mps 740 mmHg 48%
    12:00 +36°C° 0 mm 3 mps 739 mmHg 44%
    13:00 +37°C° 0 mm 3 mps 738 mmHg 41%
    14:00 +38°C° 0 mm 4 mps 738 mmHg 37%
    15:00 +37°C° 0 mm 3 mps 738 mmHg 40%
    16:00 +36°C° 0 mm 3 mps 737 mmHg 43%
    17:00 +36°C° 0 mm 2 mps 737 mmHg 46%
    18:00 +35°C° 0 mm 2 mps 737 mmHg 48%
    19:00 +32°C° 0 mm 2 mps 738 mmHg 51%
    20:00 +31°C° 0 mm 2 mps 738 mmHg 53%
    21:00 +31°C° 0 mm 1 mps 738 mmHg 57%
    22:00 +30°C° 0 mm 1 mps 738 mmHg 60%
    23:00 +30°C° 0 mm 1 mps 738 mmHg 63%

    Day after tomorrow, 27 September, Thursday

    Time Temperature Precipitation Wind Pressure Humidity
    00:00 +29°C° 0 mm 1 mps 738 mmHg 64%
    01:00 +29°C° 0 mm 1 mps 738 mmHg 66%
    02:00 +27°C° 0 mm 0 mps 738 mmHg 68%
    03:00 +28°C° 0 mm 1 mps 738 mmHg 68%
    04:00 +28°C° 0 mm 1 mps 738 mmHg 68%
    05:00 +28°C° 0 mm 1 mps 738 mmHg 68%
    06:00 +29°C° 0 mm 1 mps 739 mmHg 63%
    07:00 +30°C° 0 mm 2 mps 739 mmHg 58%
    08:00 +31°C° 0 mm 2 mps 740 mmHg 53%
    09:00 +34°C° 0 mm 2 mps 740 mmHg 45%
    10:00 +36°C° 0 mm 3 mps 740 mmHg 37%
    11:00 +37°C° 0 mm 3 mps 740 mmHg 29%
    12:00 +38°C° 0 mm 3 mps 739 mmHg 27%
    13:00 +39°C° 0 mm 3 mps 739 mmHg 26%
    14:00 +40°C° 0 mm 4 mps 738 mmHg 25%
    15:00 +38°C° 0 mm 3 mps 738 mmHg 28%
    16:00 +38°C° 0 mm 2 mps 738 mmHg 31%
    17:00 +37°C° 0 mm 2 mps 737 mmHg 34%
    18:00 +34°C° 0 mm 1 mps 738 mmHg 36%
    19:00 +33°C° 0 mm 1 mps 738 mmHg 38%
    20:00 +32°C° 0 mm 1 mps 739 mmHg 40%
    21:00 +31°C° 0 mm 1 mps 739 mmHg 44%
    22:00 +31°C° 0 mm 1 mps 739 mmHg 48%
    23:00 +30°C° 0 mm 1 mps 739 mmHg 51%

    28 September, Friday

    Time Temperature Precipitation Wind Pressure Humidity
    00:00 +30°C° 0 mm 1 mps 738 mmHg 52%
    01:00 +29°C° 0 mm 1 mps 738 mmHg 54%
    02:00 +29°C° 0 mm 1 mps 738 mmHg 55%
    03:00 +29°C° 0 mm 1 mps 738 mmHg 55%
    04:00 +28°C° 0 mm 1 mps 738 mmHg 56%
    05:00 +28°C° 0 mm 1 mps 739 mmHg 57%
    06:00 +29°C° 0 mm 1 mps 739 mmHg 54%
    07:00 +30°C° 0 mm 1 mps 740 mmHg 51%
    08:00 +31°C° 0 mm 2 mps 740 mmHg 48%
    09:00 +34°C° 0 mm 2 mps 741 mmHg 42%
    10:00 +36°C° 0 mm 3 mps 741 mmHg 36%
    11:00 +38°C° 0 mm 4 mps 741 mmHg 30%
    12:00 +38°C° 0 mm 4 mps 740 mmHg 28%
    13:00 +40°C° 0 mm 4 mps 739 mmHg 27%
    14:00 +41°C° 0 mm 4 mps 739 mmHg 25%
    15:00 +39°C° 0 mm 3 mps 739 mmHg 28%
    16:00 +38°C° 0 mm 2 mps 738 mmHg 30%
    17:00 +36°C° 0 mm 1 mps 738 mmHg 33%
    18:00 +35°C° 0 mm 1 mps 739 mmHg 35%
    19:00 +34°C° 0 mm 1 mps 739 mmHg 36%
    20:00 +33°C° 0 mm 1 mps 739 mmHg 38%
    21:00 +32°C° 0 mm 1 mps 739 mmHg 41%
    22:00 +31°C° 0 mm 1 mps 739 mmHg 43%
    23:00 +31°C° 0 mm 1 mps 739 mmHg 46%

    29 September, Saturday

    Time Temperature Precipitation Wind Pressure Humidity
    00:00 +30°C° 0 mm 1 mps 739 mmHg 47%
    01:00 +30°C° 0 mm 1 mps 739 mmHg 49%
    02:00 +29°C° 0 mm 1 mps 738 mmHg 50%
    03:00 +29°C° 0 mm 1 mps 738 mmHg 50%
    04:00 +29°C° 0 mm 1 mps 739 mmHg 51%
    05:00 +28°C° 0 mm 2 mps 739 mmHg 51%
    06:00 +29°C° 0 mm 2 mps 739 mmHg 48%
    07:00 +30°C° 0 mm 2 mps 740 mmHg 45%
    08:00 +31°C° 0 mm 3 mps 740 mmHg 42%
    09:00 +34°C° 0 mm 3 mps 740 mmHg 38%
    10:00 +36°C° 0 mm 4 mps 740 mmHg 34%
    11:00 +38°C° 0 mm 4 mps 740 mmHg 30%
    12:00 +38°C° 0 mm 4 mps 740 mmHg 28%
    13:00 +40°C° 0 mm 4 mps 739 mmHg 27%
    14:00 +41°C° 0 mm 4 mps 738 mmHg 26%
    15:00 +39°C° 0 mm 3 mps 738 mmHg 29%
    16:00 +38°C° 0 mm 2 mps 738 mmHg 32%
    17:00 +37°C° 0 mm 2 mps 738 mmHg 36%
    18:00 +36°C° 0 mm 2 mps 738 mmHg 38%
    19:00 +35°C° 0 mm 2 mps 739 mmHg 41%
    20:00 +32°C° 0 mm 1 mps 739 mmHg 44%
    21:00 +32°C° 0 mm 1 mps 739 mmHg 46%
    22:00 +31°C° 0 mm 1 mps 739 mmHg 48%
    23:00 +31°C° 0 mm 1 mps 739 mmHg 50%

    30 September, Sunday

    Time Temperature Precipitation Wind Pressure Humidity
    00:00 +30°C° 0 mm 1 mps 738 mmHg 51%
    01:00 +28°C° 0 mm 0 mps 738 mmHg 53%
    02:00 +27°C° 0 mm 0 mps 738 mmHg 54%
    03:00 +27°C° 0 mm 0 mps 738 mmHg 54%
    04:00 +29°C° 0 mm 1 mps 738 mmHg 54%
    05:00 +29°C° 0 mm 1 mps 738 mmHg 55%
    06:00 +30°C° 0 mm 1 mps 739 mmHg 52%
    07:00 +31°C° 0 mm 2 mps 739 mmHg 49%
    08:00 +32°C° 0 mm 2 mps 740 mmHg 46%
    09:00 +35°C° 0 mm 2 mps 740 mmHg 41%
    10:00 +36°C° 0 mm 3 mps 740 mmHg 36%
    11:00 +38°C° 0 mm 3 mps 740 mmHg 31%
    12:00 +39°C° 0 mm 3 mps 739 mmHg 28%
    13:00 +41°C° 0 mm 4 mps 738 mmHg 26%
    14:00 +41°C° 0 mm 4 mps 738 mmHg 24%
    15:00 +39°C° 0 mm 3 mps 737 mmHg 27%
    16:00 +38°C° 0 mm 3 mps 737 mmHg 30%
    17:00 +37°C° 0 mm 2 mps 737 mmHg 33%
    18:00 +36°C° 0 mm 2 mps 737 mmHg 35%
    19:00 +35°C° 0 mm 2 mps 738 mmHg 38%
    20:00 +32°C° 0 mm 2 mps 738 mmHg 41%
    21:00 +32°C° 0 mm 1 mps 738 mmHg 43%
    22:00 +31°C° 0 mm 1 mps 738 mmHg 45%
    23:00 +30°C° 0 mm 1 mps 738 mmHg 48%
    Show more